Flag for Germany Weather past 2 weeks in Landsberg am Lech, Bavaria, Germany

Now
55 °F

Passing clouds.


Feels Like: 55 °F
Forecast: 45 / 68 °F
Wind: 2 mph from West

Location: Landsberg

Current Time: Aug 21, 2014 at 11:01:05 AM

Latest Report: Aug 21, 2014 at 10:20 AM


Visibility: N/A

Pressure: 30.09 "Hg

Humidity: 67%

Dew point: 45 °F

Location of Landsberg am LechLocation

Historic Weather in Landsberg am Lech — Graph

°F

Landsberg am Lech temperature yesterday

Maximum temperature yesterday: 59 °F (at 2:20 PM)
Minimum temperature yesterday: 54 °F (at 6:20 AM)
Average temperature yesterday: 56 °F

Past Weeks' High & Low Weather Summary

 TemperatureHumidityPressure
High81 °F (Aug 10, 2:20 PM)100% (Aug 8, 4:20 AM)30.18 "Hg (Aug 8, 4:20 AM)
Low46 °F (Aug 17, 6:20 AM)37% (Aug 10, 2:20 PM)29.68 "Hg (Aug 13, 3:20 PM)
Average61 °F74%29.99 "Hg
* Reported Aug 6 9:20 AM — Aug 21 9:20 AM, Landsberg am Lech, Weather by CustomWeather, © 2014

Note: Actual official high and low records may vary slightly from our data, if they occured in-between our weather recording intervals... More about our weather records

Advertising

Landsberg am Lech weather history for previous 24 hours

 ConditionsComfort  
Time TempWeatherWind HumidityBarometerVisibility
9:20 AM
Aug 21
55 °FPassing clouds.7 mph72%30.09 "HgN/A
8:20 AM52 °FScattered clouds.5 mph88%30.09 "HgN/A
7:20 AM52 °FPartly sunny.6 mph94%30.07 "Hg5 mi
6:20 AM52 °FPartly cloudy.6 mph94%30.07 "Hg5 mi
5:20 AM52 °FPartly cloudy.7 mph94%30.07 "HgN/A
4:20 AM52 °FPassing clouds.7 mph94%30.07 "HgN/A
3:20 AM52 °FPassing clouds.7 mph100%30.04 "Hg4 mi
2:20 AM52 °FPassing clouds.3 mph100%30.04 "HgN/A
1:20 AM54 °FPartly cloudy.3 mph94%30.04 "HgN/A
12:20 AM54 °FPassing clouds.6 mph94%30.04 "Hg5 mi
11:20 PM
Aug 20
55 °FPassing clouds.2 mph88%30.04 "HgN/A
10:20 PM55 °FPartly cloudy.2 mph88%30.04 "HgN/A
9:20 PM55 °FPartly sunny.2 mph88%30.04 "HgN/A
8:20 PM57 °FBroken clouds.3 mph77%30.01 "HgN/A
7:20 PM59 °FPartly sunny.3 mph72%30.01 "HgN/A
6:20 PM59 °FPartly sunny.5 mph72%30.01 "HgN/A
5:20 PM59 °FBroken clouds.7 mph72%30.04 "HgN/A
4:20 PM59 °FBroken clouds.5 mph68%30.04 "HgN/A
3:20 PM59 °FBroken clouds.6 mph68%30.04 "HgN/A
2:20 PM59 °FPartly sunny.5 mph72%30.04 "HgN/A
1:20 PM55 °FPartly sunny.3 mph77%30.07 "HgN/A
12:20 PM55 °FPartly sunny.5 mph77%30.07 "HgN/A
11:20 AM55 °FPartly sunny.2 mph77%30.07 "HgN/A
Weather by CustomWeather, © 2014

See weather overviewHow to use our weather pages